QPF
0.00 0.00 0.00 0.00 0.00 0.00 0.00 0.00 0.00 0.00 0.00 0.00 0.00 0.00 0.00 0.00 0.00 0.00 0.01 0.01 0.00 0.00 0.00 0.00 0.00 0.00 0.00 0.00 0.00 0.00 0.00 0.00 0.00 0.00 0.00 0.00 0.00 0.00 0.00 0.00 0.00 0.00 0.00
0.00 0.00 0.00 0.00 0.00 0.00 0.00 0.00 0.00 0.00 0.00 0.00 0.00 0.00 0.00 0.00 0.00 0.00 0.00 0.00 0.00 0.00 0.00 0.00 0.00 0.00 0.00 0.00 0.00 0.01 0.01 0.01 0.00 0.00 0.00 0.00 0.00 0.00 0.00 0.00 0.00 0.00 0.00
0.00 0.00 0.00 0.00 0.00 0.00 0.00 0.00 0.00 0.00 0.00 0.00 0.00 0.01 0.00 0.00 0.00 0.00 0.00 0.00 0.00 0.00 0.00 0.00 0.00 0.00 0.00 0.00 0.00 0.02 0.03 0.02 0.02 0.01 0.00 0.00 0.00 0.00 0.00 0.00 0.00 0.00 0.00
0.00 0.00 0.00 0.00 0.00 0.00 0.00 0.00 0.00 0.00 0.00 0.00 0.00 0.00 0.00 0.00 0.00 0.00 0.00 0.00 0.00 0.00 0.00 0.00 0.00 0.00 0.00 0.01 0.01 0.01 0.01 0.01 0.02 0.02 0.01 0.01 0.01 0.01 0.00 0.00 0.00 0.00 0.00
0.00 0.00 0.00 0.00 0.00 0.00 0.00 0.00 0.00 0.00 0.00 0.00 0.00 0.00 0.00 0.00 0.00 0.00 0.01 0.00 0.00 0.00 0.00 0.00 0.00 0.00 0.02 0.03 0.02 0.01 0.01 0.01 0.01 0.00 0.00 0.00 0.00 0.00 0.01 0.01 0.00 0.00 0.00
0.00 0.00 0.00 0.00 0.00 0.00 0.00 0.00 0.00 0.00 0.00 0.00 0.00 0.00 0.00 0.00 0.00 0.00 0.00 0.00 0.00 0.00 0.00 0.00 0.01 0.00 0.00 0.01 0.02 0.03 0.02 0.01 0.00 0.01 0.00 0.00 0.00 0.00 0.01 0.01 0.01 0.00 0.00
0.00 0.00 0.00 0.00 0.00 0.00 0.00 0.00 0.00 0.00 0.00 0.00 0.00 0.00 0.00 0.00 0.00 0.00 0.00 0.00 0.00 0.00 0.00 0.00 0.00 0.00 0.00 0.00 0.01 0.04 0.03 0.03 0.01 0.00 0.00 0.00 0.00 0.00 0.00 0.01 0.00 0.00 0.00
0.00 0.00 0.00 0.00 0.00 0.00 0.00 0.00 0.00 0.00 0.00 0.00 0.00 0.00 0.00 0.00 0.00 0.00 0.00 0.00 0.00 0.00 0.00 0.00 0.00 0.00 0.00 0.00 0.00 0.00 0.00 0.00 0.00 0.00 0.01 0.00 0.00 0.01 0.01 0.01 0.01 0.01 0.00
0.00 0.00 0.00 0.00 0.00 0.00 0.00 0.00 0.00 0.00 0.00 0.00 0.00 0.00 0.00 0.00 0.00 0.00 0.00 0.00 0.00 0.00 0.00 0.00 0.00 0.00 0.00 0.00 0.00 0.00 0.00 0.00 0.00 0.00 0.00 0.00 0.00 0.00 0.00 0.01 0.01 0.01 0.00
0.00 0.00 0.00 0.00 0.00 0.00 0.00 0.00 0.00 0.00 0.00 0.00 0.00 0.00 0.00 0.00 0.00 0.00 0.00 0.00 0.00 0.00 0.00 0.00 0.00 0.00 0.00 0.00 0.00 0.00 0.00 0.00 0.00 0.00 0.00 0.00 0.00 0.00 0.01 0.01 0.01 0.00 0.00
0.00 0.00 0.00 0.00 0.00 0.00 0.00 0.00 0.00 0.00 0.00 0.00 0.00 0.00 0.00 0.00 0.00 0.00 0.00 0.00 0.00 0.00 0.00 0.00 0.00 0.00 0.00 0.00 0.00 0.00 0.00 0.00 0.00 0.00 0.01 0.01 0.01 0.02 0.02 0.02 0.01 0.01 0.00
0.00 0.00 0.00 0.00 0.00 0.00 0.00 0.00 0.00 0.00 0.00 0.00 0.00 0.00 0.00 0.00 0.00 0.00 0.00 0.00 0.00 0.00 0.00 0.00 0.00 0.00 0.00 0.00 0.00 0.00 0.00 0.00 0.00 0.02 0.02 0.03 0.03 0.03 0.02 0.01 0.01 0.01 0.00
0.00 0.00 0.00 0.00 0.00 0.00 0.00 0.00 0.00 0.00 0.00 0.00 0.00 0.00 0.00 0.00 0.00 0.00 0.00 0.00 0.00 0.00 0.00 0.00 0.00 0.00 0.00 0.00 0.00 0.00 0.00 0.00 0.00 0.01 0.01 0.01 0.01 0.02 0.01 0.01 0.01 0.01 0.01
0.00 0.00 0.00 0.00 0.00 0.00 0.00 0.00 0.00 0.00 0.00 0.00 0.00 0.00 0.00 0.00 0.00 0.00 0.00 0.00 0.00 0.00 0.00 0.00 0.00 0.00 0.00 0.00 0.00 0.00 0.00 0.00 0.00 0.00 0.00 0.00 0.01 0.01 0.01 0.01 0.01 0.01 0.00
0.00 0.00 0.00 0.00 0.00 0.00 0.00 0.00 0.00 0.00 0.00 0.00 0.00 0.00 0.00 0.01 0.00 0.00 0.00 0.00 0.00 0.00 0.00 0.00 0.00 0.00 0.00 0.00 0.00 0.00 0.00 0.00 0.01 0.01 0.00 0.00 0.00 0.01 0.01 0.02 0.01 0.00 0.00
0.00 0.00 0.00 0.00 0.00 0.00 0.00 0.00 0.00 0.00 0.00 0.00 0.00 0.00 0.00 0.00 0.00 0.00 0.00 0.00 0.00 0.00 0.00 0.00 0.00 0.00 0.00 0.00 0.00 0.00 0.00 0.02 0.02 0.02 0.01 0.01 0.01 0.01 0.01 0.00 0.00 0.00 0.00
0.00 0.00 0.00 0.00 0.00 0.00 0.00 0.00 0.00 0.00 0.00 0.00 0.00 0.00 0.00 0.00 0.00 0.00 0.00 0.00 0.00 0.00 0.00 0.00 0.00 0.00 0.01 0.01 0.02 0.02 0.01 0.01 0.01 0.01 0.01 0.01 0.01 0.01 0.01 0.00 0.00 0.00 0.00
0.00 0.00 0.00 0.00 0.00 0.00 0.00 0.00 0.00 0.00 0.00 0.00 0.00 0.00 0.00 0.00 0.00 0.00 0.00 0.00 0.00 0.00 0.00 0.01 0.01 0.01 0.02 0.04 0.05 0.05 0.03 0.01 0.01 0.00 0.01 0.01 0.01 0.01 0.01 0.00 0.00 0.00 0.00
0.00 0.00 0.00 0.00 0.00 0.00 0.00 0.00 0.00 0.00 0.00 0.00 0.00 0.00 0.00 0.00 0.00 0.00 0.00 0.00 0.01 0.00 0.00 0.00 0.00 0.00 0.01 0.03 0.04 0.04 0.01 0.00 0.00 0.00 0.01 0.01 0.01 0.01 0.00 0.00 0.00 0.00 0.00
0.00 0.00 0.00 0.00 0.00 0.00 0.00 0.00 0.00 0.00 0.00 0.00 0.00 0.00 0.00 0.00 0.00 0.00 0.00 0.01 0.01 0.02 0.00 0.00 0.00 0.00 0.00 0.01 0.02 0.02 0.02 0.00 0.00 0.01 0.01 0.01 0.00 0.00 0.00 0.00 0.00 0.00 0.00
0.00 0.00 0.00 0.00 0.00 0.00 0.00 0.00 0.00 0.00 0.00 0.00 0.00 0.00 0.00 0.00 0.00 0.00 0.00 0.01 0.01 0.00 0.00 0.00 0.00 0.00 0.00 0.00 0.00 0.00 0.00 0.00 0.00 0.00 0.00 0.00 0.00 0.00 0.00 0.00 0.00 0.00 0.00
0.00 0.00 0.00 0.00 0.00 0.00 0.00 0.00 0.00 0.00 0.00 0.00 0.00 0.00 0.00 0.01 0.00 0.01 0.02 0.02 0.01 0.00 0.00 0.00 0.00 0.00 0.00 0.00 0.00 0.00 0.00 0.00 0.00 0.00 0.00 0.00 0.00 0.00 0.00 0.00 0.00 0.00 0.00
0.00 0.00 0.00 0.00 0.00 0.00 0.00 0.00 0.00 0.00 0.00 0.00 0.01 0.02 0.01 0.03 0.04 0.03 0.02 0.01 0.00 0.00 0.00 0.00 0.00 0.00 0.00 0.00 0.00 0.00 0.00 0.00 0.00 0.00 0.00 0.00 0.00 0.00 0.00 0.00 0.00 0.00 0.00
0.00 0.00 0.00 0.00 0.02 0.01 0.00 0.01 0.01 0.01 0.01 0.02 0.01 0.02 0.02 0.01 0.00 0.00 0.00 0.00 0.00 0.00 0.00 0.00 0.00 0.00 0.00 0.00 0.00 0.00 0.00 0.00 0.00 0.00 0.00 0.00 0.00 0.00 0.00 0.00 0.00 0.00 0.00
0.00 0.00 0.00 0.00 0.01 0.01 0.01 0.01 0.00 0.00 0.00 0.00 0.00 0.00 0.00 0.00 0.00 0.00 0.00 0.00 0.00 0.00 0.00 0.00 0.00 0.00 0.00 0.00 0.00 0.00 0.00 0.00 0.00 0.00 0.00 0.00 0.00 0.00 0.00 0.00 0.00 0.00 0.00
0.00 0.00 0.00 0.00 0.00 0.00 0.00 0.00 0.00 0.00 0.00 0.00 0.00 0.00 0.00 0.00 0.00 0.00 0.00 0.00 0.00 0.00 0.00 0.00 0.00 0.00 0.00 0.00 0.00 0.00 0.00 0.00 0.00 0.00 0.00 0.00 0.00 0.00 0.00 0.00 0.00 0.00 0.00
MSLP
1006.53 1007.74 1008.83 1009.54 1010.17 1010.92 1011.59 1012.46 1012.79 1013.38 1014.05 1014.69 1015.28 1015.92 1016.20 1016.86 1017.60 1017.84 1018.07 1018.04 1018.10 1019.17 1019.46 1019.45 1019.69 1019.78 1020.02 1020.38 1021.08 1021.61 1022.12 1022.36 1022.83 1022.99 1023.52 1023.84 1024.03 1024.26 1024.30 1024.44 1024.52 1024.77 1025.18
1005.98 1007.08 1008.19 1009.01 1009.78 1010.33 1011.15 1012.07 1012.71 1013.18 1013.66 1014.14 1014.79 1015.39 1016.00 1016.62 1017.07 1017.64 1018.05 1018.32 1018.22 1018.71 1019.27 1019.44 1019.31 1019.66 1020.03 1020.63 1021.13 1021.60 1021.91 1022.07 1022.79 1022.40 1022.40 1022.68 1023.28 1023.37 1023.52 1023.43 1023.98 1024.16 1024.42
1004.80 1006.11 1007.30 1008.19 1009.20 1009.97 1010.89 1011.22 1011.96 1012.86 1013.26 1013.85 1014.56 1015.40 1016.26 1017.04 1017.27 1017.38 1017.47 1017.88 1017.88 1018.24 1018.76 1019.34 1019.16 1019.70 1020.07 1020.49 1020.89 1021.55 1022.10 1022.09 1022.83 1022.45 1021.80 1021.51 1021.48 1021.53 1022.14 1023.14 1023.48 1023.85 1024.01
1003.84 1005.10 1006.30 1007.38 1008.27 1009.08 1010.08 1010.56 1011.27 1012.14 1012.88 1013.21 1013.90 1014.27 1014.94 1015.54 1016.02 1016.70 1017.05 1016.88 1017.58 1018.04 1018.18 1018.76 1019.05 1019.57 1020.06 1020.27 1020.66 1021.36 1021.74 1021.89 1022.06 1022.71 1022.33 1021.83 1021.88 1021.67 1022.02 1022.53 1023.34 1023.58 1024.04
1003.02 1004.08 1005.43 1006.55 1007.42 1008.44 1009.49 1010.12 1010.72 1011.54 1012.36 1012.86 1013.30 1013.88 1014.48 1014.96 1015.68 1016.47 1016.91 1017.08 1017.40 1017.35 1018.04 1018.50 1018.88 1019.32 1019.73 1020.22 1020.58 1021.07 1021.65 1021.70 1021.51 1021.41 1021.63 1021.82 1021.94 1022.49 1022.54 1022.94 1023.28 1023.59 1023.48
1002.26 1003.38 1004.83 1006.18 1006.94 1007.82 1008.71 1009.69 1010.29 1010.92 1011.85 1012.31 1012.90 1013.33 1013.94 1014.44 1015.17 1015.99 1016.57 1016.97 1017.06 1017.43 1017.68 1017.78 1018.35 1018.59 1019.11 1019.43 1019.79 1020.32 1021.09 1021.15 1021.28 1020.88 1021.02 1020.95 1021.17 1021.47 1022.11 1023.34 1023.23 1023.37 1022.91
1001.48 1002.54 1003.83 1005.19 1006.14 1006.97 1007.93 1008.94 1009.90 1010.44 1011.11 1011.84 1012.23 1012.67 1012.88 1013.62 1014.33 1014.91 1015.52 1015.91 1016.12 1016.47 1016.81 1017.29 1017.79 1018.04 1018.08 1018.44 1019.15 1020.33 1020.47 1020.26 1020.38 1020.33 1020.25 1020.53 1020.38 1020.80 1021.62 1022.53 1022.82 1023.09 1022.98
1000.72 1001.61 1002.70 1004.37 1005.30 1006.30 1007.17 1007.99 1008.87 1009.68 1010.48 1011.11 1011.66 1012.11 1012.23 1012.75 1013.45 1013.87 1014.47 1014.96 1015.28 1015.59 1016.04 1016.69 1016.81 1016.93 1017.28 1017.68 1018.20 1018.96 1019.43 1019.54 1019.40 1019.54 1019.69 1019.53 1019.78 1020.32 1020.95 1021.37 1021.97 1022.56 1022.24
999.77 1000.68 1001.68 1003.22 1004.56 1005.41 1006.30 1007.18 1007.81 1008.40 1009.41 1010.16 1010.88 1011.38 1011.58 1011.89 1012.25 1012.81 1013.71 1014.15 1014.55 1015.12 1015.34 1015.78 1016.38 1016.77 1016.87 1017.26 1017.43 1017.97 1018.17 1018.69 1018.77 1018.79 1018.80 1018.76 1019.11 1019.92 1020.39 1020.65 1021.20 1021.66 1020.96
999.00 1000.05 1000.92 1001.99 1003.36 1004.69 1005.53 1006.49 1007.07 1007.56 1008.14 1008.99 1009.63 1010.04 1010.43 1010.86 1011.28 1011.89 1012.32 1012.76 1013.15 1013.76 1014.24 1014.83 1015.45 1016.06 1016.20 1016.44 1016.77 1017.05 1017.24 1017.50 1017.47 1017.63 1017.74 1017.85 1018.15 1018.71 1019.45 1019.84 1020.35 1020.41 1019.95
998.65 999.51 1000.29 1001.41 1002.34 1003.58 1004.68 1005.46 1006.02 1006.50 1007.14 1007.87 1008.41 1008.92 1009.38 1009.98 1010.56 1010.93 1011.31 1011.67 1012.21 1012.54 1013.03 1013.62 1014.31 1014.75 1015.09 1015.42 1015.71 1015.75 1015.91 1016.00 1016.10 1016.49 1016.82 1016.92 1017.22 1017.59 1018.24 1018.85 1018.72 1019.01 1019.08
998.27 998.93 999.78 1000.72 1001.73 1002.41 1003.41 1004.19 1005.12 1005.48 1005.96 1006.79 1007.49 1007.98 1008.69 1009.22 1009.70 1010.03 1010.32 1010.94 1011.08 1011.49 1011.71 1012.40 1013.02 1013.39 1013.74 1014.08 1014.32 1014.47 1014.58 1014.83 1014.93 1015.46 1016.18 1016.50 1016.63 1016.71 1017.13 1017.62 1017.83 1017.33 1017.56
998.17 998.67 999.36 999.97 1000.70 1001.50 1002.20 1002.91 1003.79 1004.25 1005.01 1005.62 1006.37 1007.11 1007.54 1007.96 1008.22 1008.67 1009.41 1010.06 1010.56 1010.89 1011.42 1011.75 1011.55 1011.62 1011.95 1012.45 1012.95 1013.20 1013.48 1013.81 1014.10 1014.56 1015.00 1015.19 1015.94 1016.25 1016.43 1016.81 1017.00 1017.27 1017.48
998.30 998.61 998.87 999.20 999.81 1000.42 1001.01 1001.65 1002.36 1003.31 1004.07 1004.72 1005.18 1005.53 1006.05 1006.38 1006.89 1007.76 1008.48 1008.87 1009.34 1010.11 1010.48 1010.67 1010.88 1011.17 1011.28 1011.42 1011.60 1011.94 1012.36 1012.64 1013.23 1013.47 1013.48 1013.76 1014.63 1014.92 1015.34 1015.37 1015.71 1016.84 1016.94
998.05 998.15 998.46 998.60 998.91 999.52 1000.04 1000.52 1001.22 1001.92 1002.78 1003.42 1003.91 1003.84 1004.65 1005.62 1006.29 1006.83 1007.39 1008.03 1008.56 1008.83 1009.23 1009.63 1009.85 1010.12 1010.45 1010.64 1010.99 1011.32 1011.67 1011.96 1012.22 1012.44 1012.59 1012.79 1012.97 1012.95 1013.93 1014.60 1014.95 1016.14 1016.11
998.65 998.23 997.98 997.95 998.20 998.29 998.80 999.33 999.81 1000.43 1001.51 1002.01 1002.01 1002.96 1003.76 1004.30 1004.74 1005.39 1006.06 1006.78 1007.33 1007.96 1008.38 1008.54 1008.86 1009.05 1009.25 1009.24 1009.57 1010.06 1010.18 1010.83 1011.00 1011.21 1011.52 1011.64 1012.12 1012.57 1013.26 1013.70 1014.03 1014.95 1015.25
999.20 998.97 998.57 998.27 998.05 998.10 998.32 998.46 998.79 999.67 1000.17 1000.72 1001.26 1001.71 1002.37 1002.86 1003.53 1004.27 1004.91 1005.32 1005.74 1006.47 1006.62 1006.88 1007.33 1007.56 1008.07 1008.53 1009.27 1009.80 1010.01 1009.85 1010.04 1010.32 1010.82 1011.50 1011.96 1012.30 1013.30 1014.18 1014.61 1015.45 1015.73
1000.10 999.44 998.90 998.50 998.38 997.96 997.71 997.90 998.16 998.40 998.84 999.36 1000.05 1000.67 1001.17 1001.78 1002.48 1003.17 1003.66 1004.21 1004.81 1005.23 1005.76 1006.09 1006.31 1006.77 1006.92 1007.50 1008.16 1008.77 1009.13 1009.13 1009.35 1009.72 1010.39 1011.18 1012.10 1012.35 1013.02 1014.23 1014.96 1015.62 1016.09
1000.88 1000.36 999.88 999.27 998.59 998.05 997.92 997.66 997.48 997.63 997.95 998.23 998.67 999.52 1000.36 1000.87 1001.52 1002.17 1002.72 1003.38 1004.03 1004.66 1004.99 1005.25 1005.78 1006.36 1006.47 1007.00 1007.35 1008.22 1008.90 1009.45 1010.15 1010.52 1011.01 1011.54 1012.43 1013.33 1013.87 1014.68 1015.91 1017.54 1017.22
1001.87 1001.18 1000.60 999.86 999.17 998.64 998.28 997.77 997.29 997.32 997.43 997.71 997.98 998.82 999.64 1000.29 1000.69 1001.46 1002.33 1002.93 1003.59 1004.31 1005.49 1005.92 1006.87 1007.27 1007.42 1007.72 1007.91 1008.27 1009.17 1010.08 1010.84 1011.60 1012.12 1012.52 1013.22 1013.68 1014.31 1014.70 1015.91 1017.39 1018.77
1002.96 1002.30 1001.25 1000.92 1000.58 1000.22 999.47 998.41 997.94 997.54 997.75 998.17 998.45 998.97 999.74 1000.48 1000.88 1001.55 1002.85 1003.96 1004.54 1005.53 1006.49 1007.17 1008.17 1008.43 1008.51 1008.80 1008.92 1009.18 1009.74 1010.57 1011.50 1012.35 1013.13 1013.93 1014.57 1014.76 1015.00 1015.89 1016.89 1017.62 1018.47
1003.81 1003.54 1002.41 1002.52 1002.58 1001.88 1000.54 999.90 1000.38 999.76 999.83 1000.24 1000.59 1001.36 1001.76 1002.15 1002.86 1003.20 1003.88 1004.67 1005.51 1006.57 1007.37 1008.19 1009.24 1009.77 1010.01 1010.12 1010.26 1010.49 1010.75 1011.44 1012.14 1013.32 1014.53 1014.78 1015.09 1015.90 1016.71 1016.97 1017.07 1018.28 1019.25
1005.73 1005.53 1004.54 1004.33 1004.42 1004.03 1003.17 1002.52 1002.62 1001.69 1001.99 1002.15 1002.27 1002.97 1003.62 1003.73 1004.20 1004.78 1005.16 1005.92 1006.94 1007.52 1008.39 1008.54 1010.05 1010.97 1011.28 1011.61 1011.91 1012.11 1012.23 1012.98 1013.42 1014.42 1014.93 1015.49 1016.39 1017.08 1017.88 1018.38 1018.08 1019.09 1019.66
1007.22 1007.85 1006.87 1005.91 1006.44 1006.38 1005.63 1004.74 1004.02 1003.37 1003.66 1003.92 1004.02 1004.90 1005.42 1005.71 1005.79 1006.75 1007.39 1007.16 1007.48 1008.37 1009.68 1009.16 1010.83 1012.08 1012.15 1012.62 1012.97 1013.11 1013.77 1013.97 1014.75 1015.52 1016.11 1016.82 1017.19 1018.00 1018.62 1018.93 1019.52 1020.00 1020.14
1009.06 1009.95 1009.12 1007.82 1008.47 1008.33 1007.80 1006.65 1005.87 1005.09 1005.05 1005.51 1006.05 1006.78 1007.17 1007.18 1007.64 1008.58 1009.42 1009.53 1008.90 1008.64 1010.36 1011.15 1011.47 1012.51 1013.54 1013.82 1013.90 1014.24 1014.61 1015.21 1016.08 1016.29 1017.12 1017.74 1017.95 1018.28 1018.64 1019.11 1019.75 1020.19 1020.44
1011.17 1011.53 1011.03 1010.02 1009.47 1010.14 1009.23 1008.66 1007.77 1006.95 1006.32 1007.05 1007.78 1008.22 1008.76 1009.46 1009.34 1009.25 1010.44 1011.80 1010.76 1010.13 1011.70 1012.28 1012.77 1013.68 1014.26 1014.79 1015.02 1015.58 1016.06 1016.21 1016.68 1017.04 1017.52 1017.89 1018.22 1018.45 1018.80 1019.20 1019.64 1020.22 1020.68
Thickness
5671 5663 5654 5648 5642 5635 5629 5619 5614 5608 5603 5599 5596 5592 5592 5587 5583 5585 5585 5589 5589 5586 5588 5590 5591 5593 5594 5593 5591 5588 5584 5583 5580 5578 5574 5573 5573 5574 5576 5576 5579 5578 5576
5669 5662 5655 5650 5642 5638 5631 5619 5609 5598 5597 5599 5597 5595 5592 5587 5587 5584 5584 5585 5589 5587 5586 5588 5591 5589 5590 5588 5585 5583 5580 5580 5574 5575 5576 5574 5575 5577 5578 5581 5577 5578 5577
5674 5666 5658 5653 5645 5637 5628 5626 5614 5599 5597 5598 5596 5592 5587 5582 5583 5585 5588 5586 5587 5587 5586 5585 5587 5586 5584 5583 5581 5576 5571 5570 5565 5571 5578 5577 5579 5587 5586 5578 5577 5576 5575
5682 5673 5664 5657 5650 5645 5636 5630 5622 5611 5605 5605 5603 5603 5598 5594 5591 5588 5587 5590 5586 5585 5586 5584 5583 5581 5578 5580 5577 5570 5568 5568 5566 5563 5570 5577 5578 5578 5576 5578 5572 5573 5568
5684 5678 5668 5662 5656 5649 5640 5634 5628 5620 5614 5611 5607 5602 5597 5594 5591 5588 5585 5586 5586 5588 5584 5581 5579 5578 5576 5574 5572 5569 5564 5566 5569 5570 5570 5571 5573 5570 5569 5564 5567 5564 5565
5687 5682 5672 5663 5658 5653 5645 5636 5631 5625 5618 5615 5609 5605 5599 5598 5593 5586 5581 5582 5585 5585 5583 5584 5579 5579 5576 5577 5575 5571 5566 5567 5569 5574 5572 5575 5574 5573 5569 5554 5559 5555 5562
5689 5684 5674 5665 5661 5655 5649 5641 5632 5627 5622 5616 5613 5610 5610 5605 5596 5590 5587 5587 5587 5587 5586 5582 5579 5578 5580 5579 5574 5566 5569 5573 5573 5575 5576 5575 5577 5574 5569 5558 5556 5554 5553
5692 5688 5681 5669 5665 5658 5652 5646 5639 5631 5624 5620 5616 5613 5613 5609 5603 5599 5596 5593 5593 5592 5590 5586 5584 5583 5582 5580 5577 5574 5573 5573 5577 5575 5574 5577 5576 5571 5567 5562 5554 5546 5549
5695 5692 5687 5676 5666 5661 5655 5649 5645 5641 5633 5626 5621 5617 5617 5614 5612 5608 5601 5600 5598 5593 5591 5591 5587 5581 5580 5579 5580 5577 5578 5575 5574 5575 5575 5574 5573 5566 5563 5559 5553 5548 5552
5696 5692 5689 5683 5674 5663 5658 5651 5647 5644 5641 5634 5628 5625 5623 5621 5618 5614 5611 5608 5606 5601 5599 5595 5589 5582 5582 5581 5580 5579 5578 5575 5577 5576 5575 5575 5574 5568 5562 5557 5551 5549 5551
5692 5691 5689 5684 5680 5670 5661 5656 5653 5649 5644 5639 5635 5631 5627 5624 5620 5617 5614 5612 5609 5607 5605 5600 5593 5590 5588 5586 5583 5585 5583 5581 5580 5577 5574 5573 5570 5567 5562 5556 5555 5553 5549
5692 5691 5689 5683 5677 5674 5667 5661 5655 5653 5649 5642 5637 5634 5629 5625 5620 5618 5617 5614 5614 5612 5611 5603 5598 5597 5595 5592 5589 5587 5587 5582 5581 5578 5571 5567 5565 5565 5561 5556 5552 5552 5546
5687 5687 5684 5681 5678 5675 5672 5667 5661 5658 5653 5648 5641 5635 5632 5630 5628 5625 5619 5615 5611 5609 5604 5602 5604 5604 5601 5596 5593 5590 5586 5581 5578 5574 5569 5566 5557 5557 5555 5551 5548 5542 5539
5677 5678 5681 5681 5680 5677 5675 5671 5666 5660 5654 5649 5646 5643 5640 5637 5633 5626 5621 5618 5613 5607 5604 5603 5600 5598 5597 5596 5593 5590 5585 5582 5577 5574 5573 5568 5559 5558 5553 5550 5546 5536 5531
5677 5679 5677 5680 5680 5677 5675 5673 5668 5664 5658 5653 5651 5652 5645 5636 5630 5626 5622 5616 5612 5610 5605 5601 5600 5597 5594 5593 5590 5586 5582 5579 5576 5574 5571 5568 5563 5556 5552 5546 5539 5529 5527
5664 5669 5676 5679 5678 5681 5678 5675 5672 5668 5660 5656 5658 5651 5644 5640 5636 5630 5623 5616 5612 5607 5603 5602 5599 5597 5596 5596 5589 5585 5585 5579 5576 5573 5568 5566 5560 5555 5548 5543 5537 5529 5517
5651 5657 5663 5668 5672 5673 5673 5673 5672 5666 5663 5658 5653 5652 5647 5643 5638 5631 5625 5622 5617 5609 5608 5606 5602 5599 5595 5588 5579 5573 5573 5573 5572 5568 5561 5553 5548 5545 5535 5525 5519 5510 5507
5633 5646 5653 5658 5663 5669 5672 5672 5669 5668 5665 5661 5655 5651 5647 5642 5637 5631 5627 5623 5618 5614 5609 5605 5601 5596 5595 5585 5578 5571 5568 5567 5565 5560 5552 5542 5534 5531 5524 5512 5503 5495 5487
5620 5626 5636 5644 5652 5658 5660 5663 5665 5665 5663 5662 5659 5653 5646 5641 5635 5630 5627 5621 5616 5611 5607 5602 5598 5593 5590 5579 5572 5564 5558 5550 5543 5538 5533 5528 5518 5508 5502 5493 5478 5461 5457
5606 5612 5619 5630 5638 5643 5648 5652 5658 5659 5658 5658 5657 5651 5644 5638 5634 5627 5619 5616 5610 5603 5586 5579 5573 5567 5565 5561 5558 5553 5542 5531 5523 5515 5510 5505 5497 5490 5482 5479 5468 5451 5434
5584 5594 5605 5610 5613 5619 5627 5638 5644 5648 5648 5647 5646 5642 5636 5628 5625 5617 5603 5590 5582 5572 5563 5556 5548 5546 5545 5541 5538 5534 5526 5517 5506 5497 5488 5478 5470 5466 5461 5450 5438 5429 5419
5567 5571 5584 5584 5582 5591 5608 5617 5611 5616 5617 5615 5611 5603 5600 5596 5590 5585 5577 5570 5562 5552 5544 5536 5526 5522 5518 5516 5513 5509 5504 5495 5486 5473 5460 5455 5450 5439 5426 5424 5420 5406 5395
5543 5546 5554 5554 5554 5558 5568 5575 5574 5584 5582 5581 5579 5574 5569 5569 5565 5559 5555 5549 5539 5532 5524 5521 5507 5497 5493 5489 5484 5479 5475 5465 5458 5447 5440 5431 5422 5414 5404 5393 5391 5379 5369
5509 5510 5520 5527 5523 5526 5534 5543 5551 5556 5555 5552 5551 5543 5539 5536 5536 5528 5523 5523 5520 5509 5498 5501 5485 5472 5470 5464 5458 5455 5447 5442 5431 5422 5413 5404 5401 5389 5379 5370 5360 5350 5343
5482 5475 5486 5498 5493 5496 5502 5515 5523 5531 5531 5527 5522 5516 5512 5510 5505 5496 5489 5485 5489 5491 5476 5468 5465 5454 5442 5438 5435 5430 5423 5415 5405 5400 5389 5382 5374 5366 5357 5348 5337 5329 5320
5452 5451 5458 5469 5475 5469 5479 5486 5496 5504 5506 5501 5495 5490 5485 5478 5477 5475 5463 5450 5458 5462 5447 5442 5436 5426 5419 5412 5407 5400 5393 5390 5383 5376 5368 5359 5350 5344 5336 5327 5318 5307 5297